Weather History for Santiago, Chile

Change the Weather History Date:

Saturday, February 2, 2013

  Actual Average Record
Temperature  
Mean Temperature 74 °F -  
Max Temperature 92 °F 82 °F 92 °F (2013)
Min Temperature 57 °F 51 °F 50 °F (1997)
Cooling Degree Days 10    
Growing Degree Days 24 (Base 50)    
Moisture  
Dew Point 54 °F    
Average Humidity 53    
Maximum Humidity 88    
Minimum Humidity 16    
Precipitation  
Precipitation 0.00 in - - ()
Sea Level Pressure  
Sea Level Pressure 29.99 in    
Wind  
Wind Speed 6 mph ()    
Max Wind Speed 16 mph    
Max Gust Speed -    
Visibility 4.8 miles    
Events      
Averages and records for this station are not official NWS values.
T = Trace of Precipitation, MM = Missing Value Source: Averaged Metar Reports

Daily Weather History Graph

Daily Weather History Graph

Search for Another Location

Airport:

Trip Planner

Search our weather history database for the weather conditions in past years. The results will help you decide how hot, cold, wet, or windy it might be!

Date:

Astronomy

Feb. 02, 2013 Rise Set
Actual Time 7:07 AM CLST 8:46 PM CLST
Civil Twilight 6:40 AM CLST 9:13 PM CLST
Nautical Twilight 6:07 AM CLST 9:45 PM CLST
Astronomical Twilight 5:33 AM CLST 10:19 PM CLST
Moon No Moon Rise 1:27 PM CLST (2/2)
Length of Visible Light 14h 32m
Length of Day
13h 39m
Waning Gibbous, 61% of the Moon is Illuminated
Feb 2
Waning Gibbous
Feb 3
Last Quarter
Feb 10
New
Feb 17
First Quarter
Feb 25
Full

Hourly Weather History & Observations

Time (CLST) Temp. Heat Index Dew Point Humidity Pressure Visibility Wind Dir Wind Speed Gust Speed Precip Events Conditions
12:00 AM 66 °F - 56 °F 63% 30.04 in 6 mi SSE 9.2 mph - -  
12:00 AM 66.2 °F - 57.2 °F 73% 30.06 in - SSE 9.2 mph - N/A   Clear
1:00 AM 64.4 °F - 55.4 °F 73% 30.06 in - SE 6.9 mph - N/A   Clear
2:00 AM 62.6 °F - 55.4 °F 77% 30.04 in 5.0 mi SSE 5.8 mph - N/A   Clear
3:00 AM 62 °F - 55 °F 72% 30.02 in 5 mi SSE 4.6 mph - -   Haze
3:00 AM 62.6 °F - 55.4 °F 77% 30.04 in 5.0 mi SSE 4.6 mph - N/A   Clear
4:00 AM 62.6 °F - 55.4 °F 77% 30.04 in 5.0 mi SE 3.5 mph - N/A   Clear
5:00 AM 60.8 °F - 55.4 °F 82% 30.01 in 5.0 mi Variable 1.2 mph - N/A   Clear
6:00 AM 59 °F - 54 °F 79% 30.01 in 5 mi 2.3 mph - -   Haze
6:00 AM 59.0 °F - 53.6 °F 82% 30.01 in 5.0 mi Variable 2.3 mph - N/A   Clear
7:00 AM 57.2 °F - 53.6 °F 88% 30.01 in 3.1 mi Variable 2.3 mph - N/A   Haze
8:00 AM 57.2 °F - 53.6 °F 88% 30.04 in 3.1 mi North 3.5 mph - N/A   Haze
9:00 AM 63 °F - 56 °F 70% 30.01 in 3 mi North 3.5 mph - -   Haze
9:00 AM 62.6 °F - 55.4 °F 77% 30.01 in 3.1 mi North 3.5 mph - N/A   Haze
10:00 AM 68.0 °F - 57.2 °F 68% 30.01 in 4.3 mi Variable 2.3 mph - N/A   Clear
11:00 AM 71.6 °F - 57.2 °F 60% 30.01 in 5.0 mi Variable 2.3 mph - N/A   Clear
12:00 PM 78 °F - 58 °F 40% 29.96 in 6 mi 4.6 mph - -  
12:00 PM 78.8 °F - 57.2 °F 47% 30.04 in - Variable 4.6 mph - N/A   Clear
1:00 PM 80.6 °F 80.8 °F 57.2 °F 45% 30.01 in - SSE 6.9 mph - N/A   Clear
2:00 PM 86.0 °F 84.5 °F 55.4 °F 35% 30.01 in - SSE 8.1 mph - N/A   Clear
3:00 PM 88 °F - 53 °F 20% 29.89 in 6 mi SE 10.4 mph - -  
3:00 PM 87.8 °F - 51.8 °F 29% 29.98 in - SE 10.4 mph - N/A   Clear
4:00 PM 91.4 °F - 51.8 °F 26% 29.95 in - SSE 10.4 mph - N/A   Clear
5:00 PM 91.4 °F - 51.8 °F 26% 29.95 in - South 15.0 mph - N/A   Clear
6:00 PM 90 °F - 50 °F 16% 29.85 in 6 mi SSW 16.1 mph - -  
6:00 PM 89.6 °F - 50.0 °F 26% 29.95 in - SSW 16.1 mph - N/A   Clear
7:00 PM 89.6 °F - 50.0 °F 26% 29.95 in - SSW 13.8 mph - N/A   Clear
8:00 PM 87.8 °F - 50.0 °F 27% 29.95 in - SSW 12.7 mph - N/A   Clear
9:00 PM 83 °F - 51 °F 23% 29.87 in 6 mi SW 10.4 mph - -  
9:00 PM 82.4 °F - 51.8 °F 35% 29.95 in - SW 10.4 mph - N/A   Clear
10:00 PM 78.8 °F - 50.0 °F 36% 29.95 in - SSW 16.1 mph - N/A   Clear
11:00 PM 75.2 °F - 51.8 °F 44% 29.98 in - SSE 10.4 mph - N/A   Clear